This is the latest recevied weather packets stored in our database for station/object KE8WMS. If no packets are shown the sender has not sent any weather packets the latest 10 day(s).
| Time | Temp. | Humidity | Pressure | Rain* | Wind** | Luminosity | Snow |
|---|---|---|---|---|---|---|---|
| 1777094568 | 14.44° C | 99% | 1003.5 hPa | 0 mm | - | 0 W/m² | - |
| 1777094266 | 14.44° C | 99% | 1003.7 hPa | 0 mm | - | 0 W/m² | - |
| 1777093962 | 14.44° C | 99% | 1003.6 hPa | 1.27 mm | - | 0 W/m² | - |
| 1777093658 | 13.89° C | 99% | 1003.8 hPa | 1.27 mm | - | 0 W/m² | - |
| 1777093355 | 13.89° C | 99% | 1003.7 hPa | 0 mm | - | 0 W/m² | - |
| 1777093050 | 13.89° C | 99% | 1003.6 hPa | 1.78 mm | - | 0 W/m² | - |
| 1777092745 | 13.89° C | 99% | 1003.4 hPa | 3.05 mm | - | 0 W/m² | - |
| 1777092440 | 13.89° C | 99% | 1003.6 hPa | 3.05 mm | - | 0 W/m² | - |
| 1777092137 | 13.89° C | 99% | 1003.9 hPa | 4.83 mm | - | 0 W/m² | - |
| 1777091833 | 13.89° C | 99% | 1003.6 hPa | 6.1 mm | - | 0 W/m² | - |
| 1777091528 | 13.89° C | 99% | 1003.6 hPa | 4.32 mm | - | 0 W/m² | - |
| 1777091223 | 13.89° C | 99% | 1003.7 hPa | 3.05 mm | - | 0 W/m² | - |
| 1777090919 | 13.89° C | 99% | 1003.9 hPa | 4.83 mm | - | 0 W/m² | - |
| 1777090617 | 13.89° C | 99% | 1003.9 hPa | 6.1 mm | - | 0 W/m² | - |
| 1777090312 | 13.89° C | 99% | 1004.2 hPa | 7.87 mm | - | 0 W/m² | - |
| 1777090009 | 13.89° C | 99% | 1004.2 hPa | 10.67 mm | - | 0 W/m² | - |
| 1777089704 | 13.89° C | 99% | 1004.4 hPa | 10.67 mm | - | 0 W/m² | - |
| 1777089400 | 13.89° C | 99% | 1004.6 hPa | 6.1 mm | - | 0 W/m² | - |
| 1777089095 | 13.89° C | 99% | 1004.8 hPa | 1.78 mm | - | 0 W/m² | - |
| 1777088789 | 13.89° C | 99% | 1004.5 hPa | 3.05 mm | - | 0 W/m² | - |
| 1777088486 | 13.89° C | 99% | 1004.7 hPa | 1.27 mm | - | 0 W/m² | - |
| 1777088185 | 13.89° C | 99% | 1004.5 hPa | 0 mm | - | 0 W/m² | - |
| 1777087880 | 13.89° C | 99% | 1004.5 hPa | 1.78 mm | - | 0 W/m² | - |
| 1777087575 | 13.89° C | 99% | 1004.6 hPa | 1.78 mm | - | 0 W/m² | - |
| 1777087274 | 13.89° C | 99% | 1004.5 hPa | 1.27 mm | - | 0 W/m² | - |
* Rain latest hour (hover to see other rain measurements)
** Current wind speed in m/s (hover to see current wind gust speed)